Back to catalog

SINP-MSU-80 (Scorpion)

AliveMilitarySSO
NORAD 67293·PAYLOAD·🇷🇺 Russia

Launched Dec 28, 2025 from Vostochny Cosmodrome

Loading…

Next Passes (next 24 hours)

TLE

FreshSource: Space-Track

Epoch: Sep 14, 2026, 10:20 UTC

1 67293U 25313AX  26257.43108816  .00002897  00000-0  12459-3 0  9994
2 67293  97.3867 330.8002 0011819  41.6236 318.5899 15.23377249 39544

Track SINP-MSU-80 (Scorpion) in real time with AllMySat

Download on the App Store